Flag for Canada Weather past 2 weeks in Burnaby, British Columbia, Canada

Now
57 °F

Broken clouds.


Feels Like: 56 °F
Forecast: 49 / 59 °F
Wind: 6 mph from West

Location: Vancouver International Air-Port

Current Time: Oct 1, 2014 at 10:46:51 AM

Latest Report: Oct 1, 2014 at 10:00 AM


Visibility: 20 mi

Pressure: 30.20 "Hg

Humidity: 82%

Dew point: 52 °F

Location of BurnabyLocation

Historic Weather in Burnaby — Graph

°F

Burnaby temperature yesterday

Maximum temperature yesterday: 64 °F (at 2:00 PM)
Minimum temperature yesterday: 55 °F (at 3:00 AM)
Average temperature yesterday: 59 °F

Past Weeks' High & Low Weather Summary

 TemperatureHumidityPressure
High75 °F (Sep 21, 5:00 PM)100% (Sep 18, 5:00 AM)30.19 "Hg (Sep 18, 5:00 AM)
Low50 °F (Sep 21, 7:00 AM)47% (Sep 16, 4:00 PM)29.63 "Hg (Sep 24, 1:00 AM)
Average61 °F86%29.92 "Hg
* Reported Sep 16 9:00 AM — Oct 1 9:00 AM, Burnaby, Weather by CustomWeather, © 2014

Note: Actual official high and low records may vary slightly from our data, if they occured in-between our weather recording intervals... More about our weather records

Advertising

Burnaby weather history for previous 24 hours

 ConditionsComfort  
Time TempWeatherWind HumidityBarometerVisibility
9:00 AM
Oct 1
55 °FMostly cloudy.No wind88%30.19 "Hg20 mi
8:00 AM52 °FPartly cloudy.3 mph94%30.19 "Hg20 mi
7:00 AM52 °FPartly cloudy.No wind88%30.17 "Hg20 mi
6:00 AM52 °FPassing clouds.No wind88%30.17 "Hg20 mi
5:00 AM50 °FPassing clouds.5 mph94%30.16 "Hg20 mi
4:00 AM52 °FPassing clouds.3 mph94%30.16 "Hg20 mi
3:00 AM52 °FPassing clouds.3 mph94%30.15 "Hg20 mi
2:00 AM52 °FPassing clouds.6 mph94%30.15 "Hg20 mi
1:00 AM55 °FPassing clouds.6 mph88%30.14 "Hg20 mi
12:00 AM55 °FPassing clouds.6 mph94%30.13 "Hg20 mi
11:00 PM
Sep 30
57 °FPassing clouds.10 mph82%30.11 "Hg20 mi
10:00 PM57 °FPassing clouds.16 mph82%30.10 "Hg20 mi
9:00 PM59 °FPassing clouds.15 mph77%30.09 "Hg20 mi
8:00 PM59 °FPassing clouds.21 mph77%30.08 "Hg30 mi
7:00 PM59 °FPassing clouds.16 mph77%30.06 "Hg30 mi
6:00 PM61 °FScattered clouds.18 mph68%30.06 "Hg30 mi
5:00 PM63 °FScattered clouds.15 mph68%30.06 "Hg30 mi
4:00 PM63 °FPassing clouds.18 mph68%30.06 "Hg30 mi
3:00 PM64 °FPassing clouds.21 mph64%30.06 "Hg30 mi
2:00 PM64 °FScattered clouds.21 mph64%30.06 "Hg30 mi
1:00 PM61 °FPartly sunny.21 mph77%30.06 "Hg30 mi
12:00 PM61 °FScattered clouds.18 mph77%30.05 "Hg20 mi
11:00 AM61 °FPassing clouds.18 mph77%30.04 "Hg20 mi
10:00 AM59 °FPassing clouds.18 mph82%30.03 "Hg20 mi
Weather by CustomWeather, © 2014

See weather overviewHow to use our weather pages